ECMWFFLT1_con_mucape_021.txt.gz
CAPE
43 46 15 22 40 6 0 0 0 0 0 0 0 0 0 0 0 0 0 0 0 0 0 0 0 0 0 0 0 0 0 0 2 3 0 0 1 0 0 6 28 80 226 248 207 137 166 359 647 642 94 19 11 10 85 20 141 115 121 212 116 166 330
6 15 8 6 14 7 3 0 0 0 0 0 0 0 0 0 0 0 0 0 0 0 0 0 0 0 0 0 0 0 0 0 0 0 0 0 0 1 2 0 4 4 28 126 22 26 92 111 132 167 245 149 341 50 33 122 199 280 286 204 137 77 100
0 0 6 23 25 6 5 2 0 0 0 0 0 0 0 0 0 0 0 0 0 0 0 0 0 0 0 0 0 0 0 0 0 0 0 0 0 0 0 0 0 0 1 2 2 1 11 83 15 2 29 2 34 138 32 206 69 48 67 145 174 95 87
4 2 4 14 12 8 6 0 0 0 0 0 0 0 0 0 0 0 0 0 0 0 0 0 0 0 0 0 0 0 0 0 0 0 0 0 0 0 0 0 0 1 4 4 4 2 6 6 5 5 6 2 0 0 5 3 1 1 5 116 150 196 135
24 3 17 36 23 16 14 0 0 0 0 0 0 0 0 0 0 0 0 0 0 0 0 0 0 0 0 0 0 0 0 0 0 0 0 0 0 0 0 0 0 0 1 2 3 4 4 4 6 6 7 3 0 0 1 1 0 1 20 27 33 68 118
41 29 40 45 52 30 13 3 0 0 0 0 0 0 0 0 0 0 0 0 0 0 0 0 0 0 0 0 0 0 0 0 0 0 0 0 0 0 0 0 0 0 0 0 0 0 2 3 4 6 3 6 5 5 1 0 0 0 0 0 28 34 40
38 61 41 28 45 30 18 6 0 0 0 0 0 0 0 0 0 0 0 0 0 0 0 0 0 0 0 0 0 0 0 0 0 0 0 0 0 0 0 0 0 0 0 0 0 0 0 2 2 7 7 5 6 0 0 0 0 0 0 4 4 0 13
71 40 40 30 33 22 17 13 7 12 0 0 0 0 0 0 0 0 0 0 0 0 0 0 0 0 0 0 0 0 0 0 0 0 0 0 0 0 0 0 0 0 0 0 0 0 0 0 1 6 7 3 0 0 0 0 0 0 0 0 0 0 2
19 61 51 11 11 27 33 18 10 4 7 10 4 0 0 0 0 0 0 0 0 0 0 0 0 0 0 0 0 0 0 0 0 0 0 0 0 0 0 0 0 0 0 0 0 0 0 0 0 0 1 5 1 0 0 0 0 0 0 0 0 0 0
15 37 52 44 24 7 23 29 27 7 15 3 0 3 0 0 0 0 0 0 0 0 0 0 0 0 0 0 0 0 0 0 0 0 0 0 0 0 0 0 0 0 0 0 0 0 0 0 0 0 0 0 4 2 0 0 0 0 0 0 0 0 0
8 39 101 95 51 3 0 8 16 4 0 0 1 0 0 0 0 0 0 0 0 0 0 0 0 0 0 0 0 0 0 0 0 0 0 0 0 0 0 0 0 0 0 0 0 0 0 0 0 0 0 0 2 2 0 0 0 0 0 0 0 0 4
4 14 56 61 31 1 5 4 5 8 9 0 0 0 0 0 0 0 0 0 0 0 0 0 0 0 0 0 0 0 0 0 0 0 0 0 0 0 0 0 0 0 0 0 0 0 0 0 0 0 0 0 0 1 0 4 0 0 0 0 2 5 0
0 1 12 37 20 0 4 4 5 9 7 0 0 0 0 0 0 0 0 0 0 0 0 0 0 0 0 0 0 0 0 0 0 0 0 0 0 0 0 0 0 0 0 0 0 0 0 0 0 0 0 0 0 0 1 1 0 0 0 0 0 0 0
0 0 7 6 34 56 38 1 0 4 3 0 0 0 0 0 0 0 0 0 0 0 0 0 0 0 0 0 0 0 0 0 0 0 0 0 0 0 0 0 0 0 0 0 0 0 0 0 0 0 0 0 0 0 0 0 0 0 0 0 0 0 0
0 0 21 127 28 33 40 8 0 0 0 0 0 0 0 0 0 0 0 0 0 0 0 0 0 0 0 0 0 0 0 0 0 0 0 0 0 0 0 0 0 0 0 0 0 0 0 0 0 0 0 0 0 0 0 0 0 0 0 0 0 0 0
8 67 63 165 189 187 88 14 0 0 0 0 0 0 0 0 0 0 0 0 0 0 0 0 0 0 0 0 0 0 0 0 0 0 0 0 0 0 0 0 0 0 0 0 0 0 0 0 0 0 0 0 0 0 0 0 0 0 0 0 0 0 0
62 30 4 19 33 192 227 231 224 196 0 0 0 0 0 0 0 0 0 0 0 0 0 0 0 0 0 0 0 0 0 0 0 0 0 0 0 0 0 0 0 0 0 0 0 0 0 0 0 0 0 0 0 0 1 3 4 1 2 0 0 0 0
216 65 13 44 12 18 136 254 282 276 262 203 0 0 0 0 0 0 0 0 0 0 0 0 0 0 0 0 0 0 0 0 0 0 0 0 0 0 0 0 0 0 0 0 0 0 0 0 0 0 0 0 0 0 0 0 2 1 0 0 0 0 0
516 463 402 354 317 91 26 81 312 342 273 240 270 38 0 0 0 0 0 0 0 0 0 0 0 0 0 0 0 0 0 0 0 0 0 0 0 0 0 0 0 0 0 0 0 0 0 0 0 0 0 0 0 0 0 0 2 4 4 2 1 0 0
648 595 561 584 603 585 546 503 419 317 289 217 0 53 0 0 0 0 0 0 0 0 0 0 0 0 0 0 0 0 0 0 0 0 0 0 0 0 0 0 0 0 0 0 0 0 0 0 0 0 0 0 0 0 0 0 0 1 2 1 0 0 0
659 680 718 733 749 730 697 654 614 550 487 354 85 5 0 0 0 0 0 0 0 0 0 0 0 0 0 0 0 0 0 0 0 0 0 0 0 0 0 0 0 0 0 0 0 0 0 0 0 0 0 0 0 0 0 0 0 0 0 0 0 0 0
550 478 539 618 703 751 704 602 509 440 410 372 366 257 58 38 6 0 0 0 0 0 0 0 0 0 0 0 0 0 0 0 0 0 0 0 0 0 0 0 0 0 0 0 0 0 0 0 0 0 0 0 0 0 0 0 0 0 0 0 0 0 0
405 440 394 443 486 528 596 626 621 618 439 175 50 6 16 67 61 19 18 0 0 0 0 0 0 0 0 0 0 0 0 0 0 0 0 0 0 0 0 0 0 0 0 0 0 0 0 0 0 0 0 0 0 0 0 0 0 0 0 0 0 0 0
151 293 378 274 360 395 404 394 388 399 466 509 429 209 0 0 0 0 0 0 0 0 0 0 0 0 0 0 0 0 0 0 0 0 0 0 0 0 0 0 0 0 0 0 0 0 0 0 0 0 0 0 0 0 0 0 0 0 0 0 0 0 0
1 78 202 209 148 254 274 284 284 313 327 412 422 377 295 268 271 73 0 0 0 0 0 0 0 0 0 0 0 0 0 0 0 0 0 0 0 0 0 0 0 0 0 0 0 0 0 0 0 0 0 0 0 0 0 0 0 0 0 0 0 0 0
0 8 54 86 69 5 0 0 128 216 254 236 299 288 263 210 156 45 0 0 0 0 0 0 0 0 0 0 0 0 0 0 0 0 0 0 0 0 0 0 0 0 0 0 0 0 0 0 0 0 0 0 0 0 0 0 0 0 0 0 0 0 0
0 0 0 6 8 13 0 0 0 0 0 169 227 306 270 224 144 92 0 0 0 0 0 0 0 0 0 0 0 0 0 0 0 0 0 0 0 0 0 0 0 0 0 0 0 0 0 0 0 0 0 0 0 0 0 0 0 0 0 3 0 0 0
0 0 0 0 0 1 0 0 0 0 0 0 70 311 264 184 0 86 27 3 0 0 0 0 0 0 0 0 0 0 0 0 0 0 0 0 0 0 0 0 0 0 0 0 0 0 0 0 0 0 0 0 0 0 0 0 0 4 3 4 3 1 1
0 0 0 0 0 0 1 0 0 0 0 0 55 240 264 236 124 122 69 0 0 0 0 0 0 0 0 0 0 0 0 0 0 0 0 0 0 0 0 0 0 0 0 0 0 0 0 0 0 0 0 0 0 0 0 0 0 1 0 2 1 3 2
0 0 0 0 0 1 2 0 0 0 0 0 0 132 52 205 162 111 45 0 0 0 0 0 0 0 0 0 0 0 0 0 0 0 0 0 0 0 0 0 0 0 0 0 0 0 0 0 2 1 2 2 3 2 3 1 1 0 0 0 0 0 0
0 0 0 0 0 1 3 2 0 0 0 0 0 159 159 154 137 0 8 6 3 0 1 0 0 0 0 0 0 0 0 0 0 0 0 0 0 0 0 0 0 0 0 0 0 0 0 0 2 1 2 2 2 3 2 0 1 2 0 0 0 0 1
0 0 0 0 0 2 2 2 0 0 20 57 97 132 136 116 39 19 4 0 0 1 1 0 0 0 0 0 0 0 0 0 0 0 0 0 0 0 0 0 0 0 0 0 0 0 0 0 3 0 2 1 2 1 1 0 4 2 2 4 2 0 0
0 0 0 0 2 3 1 0 0 10 38 38 75 29 132 71 12 0 0 2 2 1 0 0 0 0 0 0 0 0 0 0 0 0 0 0 0 0 0 0 0 0 0 0 0 0 0 0 1 3 3 2 4 0 0 3 0 1 5 0 0 2 5
0 0 0 0 2 0 1 1 2 14 43 69 38 0 21 23 3 2 0 0 0 0 2 2 1 0 0 2 4 2 1 0 0 0 0 0 0 0 0 0 0 0 0 0 0 0 1 2 4 2 2 1 0 0 0 0 2 0 2 0 0 0 0
0 0 1 1 0 1 2 4 10 24 42 75 70 2 17 2 6 8 2 0 0 1 0 0 0 0 1 2 4 3 0 0 0 0 0 0 0 0 0 0 0 0 0 1 1 2 2 3 5 3 1 1 1 1 2 2 2 2 2 1 0 0 0
0 0 0 0 4 8 8 13 22 33 51 86 67 31 12 4 5 4 2 4 4 7 4 3 1 1 3 0 0 0 0 0 0 0 0 0 0 0 0 0 0 0 0 0 0 0 2 1 1 0 1 0 1 0 1 0 4 0 0 1 1 1 2
2 0 0 3 6 18 32 39 55 42 37 60 30 23 2 0 0 0 0 0 8 8 8 6 4 2 2 0 0 0 0 0 0 0 0 0 0 1 0 2 0 0 0 0 0 0 1 1 2 0 0 1 2 2 1 1 1 1 1 1 1 1 0

ECMWFFLT1_con_mucape_024.txt.gz
CAPE
0 20 29 26 32 12 7 5 15 22 13 12 8 3 3 3 4 1 0 0 0 0 0 0 0 0 0 0 0 2 1 2 6 8 18 28 68 110 92 120 174 179 222 490 235 275 684 455 323 353 356 408 484 503 499 512 732 928 943 1006 715 671 707
23 12 0 3 12 16 20 4 1 3 17 7 0 0 0 0 0 0 0 0 0 0 0 0 0 0 0 0 0 0 0 0 2 4 1 4 9 14 20 21 27 50 121 184 119 144 200 243 542 316 432 275 160 653 496 391 489 690 629 521 518 317 241
1 3 0 4 24 22 17 14 2 0 0 2 0 0 0 0 0 0 0 0 0 0 0 0 0 0 0 0 0 0 0 0 0 0 0 0 0 3 0 1 1 4 5 27 27 31 91 217 160 168 272 20 80 480 466 407 458 67 98 74 108 211 280
7 1 0 34 25 11 9 0 0 0 0 0 0 0 0 0 0 0 0 0 0 0 0 0 0 0 0 0 0 0 0 0 0 0 0 0 0 0 0 0 0 0 0 0 3 1 6 16 14 6 5 1 12 67 453 415 358 279 257 622 321 106 91
36 10 1 26 37 16 17 0 0 0 0 0 0 0 0 0 0 0 0 0 0 0 0 0 0 0 0 0 0 0 0 0 0 0 0 0 0 0 0 0 0 0 0 0 0 0 0 0 0 0 0 0 0 0 0 2 10 5 16 46 405 712 974
78 10 3 14 38 6 10 4 0 0 0 0 0 0 0 0 0 0 0 0 0 0 0 0 0 0 0 0 0 0 0 0 0 0 0 0 0 0 0 0 0 0 0 0 0 0 0 0 0 0 0 0 0 0 0 0 0 0 0 0 0 17 64
224 21 2 5 51 3 4 9 2 0 0 0 0 0 0 0 0 0 0 0 0 0 0 0 0 0 0 0 0 0 0 0 0 0 0 0 0 0 0 0 0 0 0 0 0 0 0 0 0 0 0 0 0 0 0 0 0 0 0 0 0 0 0
351 71 12 2 64 16 15 25 6 0 0 0 0 0 0 0 0 0 0 0 0 0 0 0 0 0 0 0 0 0 0 0 0 0 0 0 0 0 0 0 0 0 0 0 0 0 0 0 0 0 0 0 0 0 0 0 0 0 0 0 0 0 0
254 172 66 12 68 92 52 32 11 0 0 0 0 1 10 0 7 2 0 0 0 0 0 0 0 0 0 0 0 0 0 0 0 0 0 0 0 0 0 0 0 0 0 0 0 0 0 0 0 0 0 0 0 0 0 0 0 0 0 0 0 0 0
513 331 215 280 342 345 178 107 25 23 0 0 1 18 11 2 24 6 0 0 0 0 0 0 0 0 0 0 0 0 0 0 0 0 0 0 0 0 0 0 0 0 0 0 0 0 0 0 0 0 0 0 0 0 0 0 0 0 0 0 0 0 0
672 535 411 490 663 486 344 230 107 170 20 7 88 85 3 12 33 4 1 0 0 0 0 0 0 0 0 0 0 0 0 0 0 0 0 0 0 0 0 0 0 0 0 0 0 0 0 0 0 0 0 0 0 0 0 0 0 0 0 0 0 0 0
775 677 576 530 681 615 509 304 263 328 279 129 34 12 8 19 36 10 14 2 0 0 0 0 0 0 0 0 0 0 0 0 0 0 0 0 0 0 0 0 0 0 0 0 0 0 0 0 0 0 0 0 0 0 0 0 0 0 0 0 0 0 0
710 653 685 737 683 706 586 468 399 420 460 269 32 16 8 19 37 34 26 10 1 0 0 0 0 0 0 0 0 0 0 0 0 0 0 0 0 0 0 0 0 0 0 0 0 0 0 0 0 0 0 0 0 0 0 0 0 0 0 0 0 0 0
746 676 688 710 801 703 619 468 444 462 520 442 150 84 3 17 36 37 19 10 0 0 0 0 0 0 0 0 0 0 0 0 0 0 0 0 0 0 0 0 0 0 0 0 0 0 0 0 0 0 0 0 0 0 0 0 0 0 0 0 0 0 0
646 642 666 725 774 696 652 592 548 537 544 534 323 199 30 34 52 66 14 7 0 0 0 0 0 0 0 0 0 0 0 0 0 0 0 0 0 0 0 0 0 0 0 0 0 0 0 0 0 0 0 0 0 0 0 0 0 0 0 0 0 0 0
561 648 637 636 673 685 657 706 674 693 602 598 450 347 143 99 84 76 52 31 1 0 0 0 0 0 0 0 0 0 0 0 0 0 0 0 0 0 0 0 0 0 0 0 0 0 0 0 0 0 0 0 0 0 0 0 0 0 0 0 0 0 0
705 708 666 640 573 666 660 679 757 741 553 536 535 437 283 204 162 101 78 39 7 0 0 0 0 0 0 0 0 0 0 0 0 0 0 0 0 0 0 0 0 0 0 0 0 0 0 0 0 0 0 0 0 0 0 0 0 0 0 0 0 0 0
999 884 841 830 794 830 830 740 719 645 570 464 511 476 303 179 267 163 132 45 5 0 0 0 0 0 0 0 0 0 0 0 0 0 0 0 0 0 0 0 0 0 0 0 0 0 0 0 0 0 0 0 0 0 0 0 0 0 0 0 0 0 0
1020 1017 959 883 922 927 944 893 830 766 592 506 458 229 257 226 135 146 87 70 21 2 0 0 0 0 0 0 0 0 0 0 0 0 0 0 0 0 0 0 0 0 0 0 0 0 0 0 0 0 0 0 0 0 0 0 0 0 0 0 0 0 0
1163 1175 1148 1049 1006 986 925 888 912 880 758 617 495 344 341 226 228 200 52 46 15 7 7 0 0 0 0 0 0 0 0 0 0 0 0 0 0 0 0 0 0 0 0 0 0 0 0 0 0 0 0 0 0 0 0 0 0 0 0 0 0 0 0
925 946 997 1121 1121 1034 1004 940 872 859 750 654 552 500 562 500 434 269 174 57 4 3 10 26 10 0 0 0 0 0 0 0 0 0 0 0 0 0 0 0 0 0 0 0 0 0 0 0 0 0 0 0 0 0 0 0 0 0 0 0 0 0 0
245 358 641 794 918 973 976 916 880 654 512 499 544 604 571 546 540 512 369 18 0 3 0 0 1 0 0 0 0 0 0 0 0 0 0 0 0 0 0 0 0 0 0 0 0 0 0 0 0 0 0 0 0 0 0 0 0 0 0 0 0 0 0
0 8 92 286 450 775 766 741 778 704 546 472 455 479 475 469 434 406 325 192 114 72 0 0 0 0 0 0 0 0 0 0 0 0 0 0 0 0 0 0 0 0 0 0 0 0 0 0 0 0 0 0 0 0 0 0 0 0 0 0 0 0 0
0 0 5 122 199 290 587 789 626 581 450 338 321 340 115 190 201 208 174 30 44 12 17 0 0 0 0 0 0 0 0 0 0 0 0 0 0 0 0 0 0 0 0 0 0 0 0 0 0 0 0 0 0 0 0 0 0 0 0 0 0 0 0
0 0 0 0 42 207 320 485 779 747 640 500 153 184 190 194 226 210 214 143 72 17 0 0 0 0 0 0 0 0 0 0 0 0 0 0 0 0 0 0 0 0 0 0 0 0 0 0 0 0 0 0 0 0 0 0 0 0 0 0 0 0 0
0 0 0 0 14 188 260 342 428 572 637 682 484 365 397 361 382 136 76 251 157 12 0 0 0 0 0 0 0 0 0 0 0 0 0 0 0 0 0 0 0 0 0 0 0 0 0 0 0 0 0 0 0 0 0 0 0 0 0 0 0 0 0
0 0 0 1 42 71 156 255 351 429 555 624 498 356 376 268 272 253 250 233 137 0 0 0 0 0 0 0 0 0 0 0 0 0 0 0 0 0 0 0 0 0 0 0 0 0 0 0 0 0 0 0 0 0 0 0 0 0 0 0 0 0 0
0 0 0 0 33 53 68 146 289 355 378 416 381 301 262 317 264 159 209 212 145 0 0 12 0 0 0 0 0 0 0 0 0 0 0 0 0 0 0 0 0 0 0 0 0 0 0 0 0 0 0 0 0 0 0 0 0 0 1 0 0 0 0
0 0 0 1 22 53 96 122 214 283 297 309 234 219 220 252 195 291 224 0 0 0 0 39 12 3 0 0 0 0 0 0 0 0 0 0 0 0 0 0 0 0 0 0 0 0 0 0 0 0 0 0 0 0 0 0 0 0 1 0 1 3 4
0 0 0 0 0 43 109 144 175 186 232 174 153 117 213 245 95 134 130 0 0 0 5 54 34 18 7 2 0 0 0 0 0 0 0 0 0 0 0 0 0 0 0 0 0 0 0 0 0 0 0 0 0 0 0 0 0 0 0 0 0 0 0
0 0 0 0 0 9 86 156 179 178 165 110 72 95 230 138 5 117 0 97 0 109 88 48 22 5 0 1 0 0 0 0 0 0 0 0 0 0 0 0 0 0 0 0 0 0 0 0 0 0 0 0 0 0 0 0 0 0 0 0 0 0 0
0 0 0 0 0 7 51 96 93 112 64 105 86 158 99 12 0 72 46 136 130 107 85 27 7 4 2 3 2 2 1 1 0 0 0 0 0 0 0 0 0 0 0 0 0 0 0 0 0 0 1 0 0 0 0 0 0 0 1 0 1 2 3
0 0 0 0 4 4 20 35 56 73 70 78 106 47 3 0 122 94 38 141 94 21 5 4 4 0 0 0 2 6 10 4 2 1 0 0 0 0 0 0 0 0 0 0 0 0 0 0 0 0 2 2 3 1 0 1 2 0 0 0 0 2 2
0 0 0 0 0 0 6 28 15 15 10 4 6 0 1 24 59 62 128 88 12 0 2 5 0 0 0 1 2 8 7 2 0 0 0 0 0 0 0 0 0 0 0 0 0 0 0 0 0 0 3 2 2 1 0 2 0 0 2 5 0 4 0
0 2 4 4 6 5 6 13 16 10 4 2 5 12 10 44 75 86 0 0 0 2 0 0 2 2 4 4 8 4 2 2 1 0 0 0 0 0 0 0 0 0 0 0 0 0 0 0 0 0 2 0 0 0 0 6 0 0 2 0 0 2 0
5 9 9 9 8 13 10 10 10 2 2 6 10 17 17 20 22 7 7 1 0 0 0 3 4 4 3 4 3 1 0 1 0 0 0 0 0 0 0 0 0 0 0 0 0 0 0 0 0 0 0 0 0 1 2 3 2 0 1 1 0 1 2
9 11 10 10 13 12 13 3 0 1 3 7 21 33 29 16 8 14 7 3 2 4 4 5 3 2 0 1 2 0 0 0 0 0 0 0 0 0 0 0 0 0 0 0 0 0 0 0 0 0 0 0 0 0 0 5 0 1 1 1 0 0 0

ECMWFFLT1_con_mucape_030.txt.gz
CAPE
485 421 427 593 323 189 164 165 72 109 114 20 167 12 2 0 5 0 0 0 7 0 0 0 0 0 1 0 2 46 64 18 58 505 455 432 428 157 350 268 24 55 150 383 460 300 308 361 570 1331 1084 729 744 881 767 688 893 1162 962 1141 857 907 795
478 299 198 83 198 222 105 88 284 9 94 122 0 1 0 0 0 0 0 0 0 0 0 0 0 0 0 0 3 5 0 12 20 27 44 7 54 65 320 434 107 126 99 178 231 312 331 170 210 360 558 942 999 658 663 946 751 656 750 829 765 576 1252
332 135 129 233 232 234 254 219 67 104 39 0 1 0 0 0 0 0 0 0 0 0 0 0 0 0 0 0 0 0 2 5 0 0 0 1 1 0 0 17 33 561 348 289 306 303 354 250 108 156 393 448 352 599 738 728 700 491 470 654 651 500 397
346 303 298 218 245 248 180 142 64 248 62 1 0 0 0 0 0 0 0 0 0 0 0 0 0 0 1 0 0 0 0 0 0 0 0 0 0 0 0 0 0 0 0 2 7 2 0 76 73 77 153 408 142 281 754 506 358 180 251 292 373 418 367
289 266 340 288 240 253 201 68 316 103 24 3 8 14 0 0 0 0 0 0 0 0 0 0 0 0 0 0 0 0 0 0 0 0 0 0 0 0 0 0 0 0 0 0 0 0 0 0 0 0 0 0 5 109 953 510 110 59 96 81 172 144 131
375 350 388 391 254 423 150 123 251 102 43 4 9 10 23 0 6 0 5 1 0 0 0 0 0 0 0 0 0 0 0 0 0 0 0 0 0 0 0 0 0 0 0 0 0 0 0 0 0 0 0 0 0 0 9 419 44 69 45 119 209 244 250
707 540 535 362 452 421 359 290 314 228 106 68 18 74 32 23 74 5 22 3 0 0 0 0 0 0 0 0 0 0 0 0 0 0 0 0 0 0 0 0 0 0 0 0 0 0 0 0 0 0 0 0 0 0 0 0 20 45 68 35 8 0 8
653 538 755 548 606 441 530 404 316 470 306 146 40 200 24 30 189 21 43 1 0 0 0 0 0 0 0 1 0 0 0 0 0 0 0 0 0 0 0 0 0 0 0 0 0 0 0 0 0 0 0 0 0 0 0 0 0 0 0 56 0 0 0
438 582 415 662 703 657 658 590 358 471 558 305 226 225 35 24 183 104 79 13 0 0 0 0 0 0 0 0 0 0 0 0 0 0 0 0 0 0 0 0 0 0 0 0 0 0 0 0 0 9 0 0 0 0 0 0 0 0 0 0 0 0 0
774 680 476 667 853 635 781 883 507 417 478 588 423 398 135 63 251 142 77 53 12 0 0 0 0 0 0 0 0 0 0 0 0 0 0 0 0 0 0 0 0 0 0 0 0 0 0 0 0 0 0 0 0 0 0 0 0 0 0 0 0 0 0
1026 1016 735 738 1105 720 793 823 941 620 348 640 559 403 304 148 266 258 200 175 63 8 0 0 0 0 0 0 0 0 0 0 0 0 0 0 0 0 0 0 0 0 0 0 0 0 0 0 0 0 0 0 0 0 0 0 0 0 0 0 0 0 0
1271 1172 1014 902 790 907 818 777 793 866 459 391 402 428 527 215 254 250 237 159 130 66 3 0 0 0 0 1 0 0 0 0 0 0 0 0 0 0 0 0 0 0 0 0 0 0 0 0 0 0 0 0 0 0 0 0 0 0 0 0 0 0 0
1129 1069 902 949 862 836 680 553 596 772 856 432 370 619 475 313 233 291 199 169 240 87 11 0 0 2 0 0 0 0 0 0 0 0 0 0 0 0 0 0 0 0 0 0 0 0 0 0 0 0 0 0 0 0 0 0 0 0 0 0 0 0 0
1274 1116 699 774 977 1010 795 812 724 694 572 708 435 585 512 402 206 269 217 135 146 145 42 8 0 1 0 1 0 0 0 0 0 0 0 0 0 0 0 0 0 0 0 0 0 0 0 0 0 0 0 0 0 0 0 0 0 0 0 0 0 0 0
1172 1132 886 917 624 373 684 931 636 602 773 872 629 467 480 497 352 256 236 156 144 153 124 10 0 0 0 0 0 0 2 0 0 0 0 0 0 0 0 0 0 0 0 0 0 0 0 0 0 0 0 0 0 0 0 0 0 0 0 0 0 0 0
1031 1105 1034 953 684 620 872 736 799 984 1041 765 635 577 416 548 418 270 268 283 193 188 179 75 24 1 0 0 1 0 21 0 0 0 0 0 0 0 0 0 0 0 0 0 0 0 0 0 0 0 0 0 0 0 0 0 0 0 0 0 0 0 0
1134 1039 1022 1166 1132 630 514 576 635 743 698 725 485 578 534 454 395 330 264 274 256 259 219 208 124 18 0 0 0 0 0 0 0 0 0 0 0 0 0 0 0 0 0 0 0 0 0 0 0 0 0 0 0 0 0 0 0 0 0 0 0 0 0
1161 1165 1058 866 994 1197 1133 1093 734 456 520 647 438 649 666 312 254 242 322 281 283 259 264 219 152 96 47 27 0 0 0 0 0 0 0 0 0 0 0 0 0 0 0 0 0 0 0 0 0 0 0 0 0 0 0 0 0 0 0 0 0 0 0
1190 966 803 752 704 636 629 784 846 1330 1128 783 514 664 516 327 213 185 200 321 210 194 218 251 215 128 58 57 23 2 1 0 0 0 0 0 0 0 0 0 0 0 0 0 0 0 0 0 0 0 0 0 0 0 0 0 0 0 0 0 0 0 0
1254 963 726 594 412 559 707 603 737 811 790 750 869 600 341 235 372 181 107 53 38 125 242 240 224 235 161 145 58 14 24 0 0 0 0 0 0 0 0 0 0 0 0 0 0 0 0 0 0 0 0 0 0 0 0 0 0 0 0 0 0 0 0
1105 1103 862 764 787 620 549 547 560 525 616 608 546 459 404 291 329 322 277 289 307 118 330 292 240 60 231 264 239 176 150 49 0 0 0 0 0 0 0 0 0 0 0 0 0 0 0 0 0 0 0 0 0 0 0 0 0 0 0 0 0 0 0
396 1081 961 855 866 707 518 572 679 716 575 573 556 532 499 462 428 366 329 232 209 271 198 32 47 74 342 293 236 197 184 171 0 0 0 0 0 0 0 0 0 0 0 0 0 0 0 0 0 0 0 0 0 0 0 0 0 0 0 0 0 0 0
0 0 36 232 691 1356 966 826 741 569 537 588 552 550 498 446 448 423 418 379 321 387 282 296 242 97 88 178 258 91 155 165 0 0 0 38 141 50 0 0 0 0 0 0 0 0 0 0 0 0 0 0 0 0 0 0 0 0 0 0 0 0 0
0 0 0 1 0 0 6 901 1134 858 902 741 614 630 456 514 557 592 553 440 369 352 376 415 369 283 310 318 71 173 103 83 39 0 0 0 0 0 0 0 0 0 0 0 0 0 0 0 0 0 0 0 0 0 0 0 0 0 0 0 0 0 0
0 0 0 0 0 2 9 20 30 413 1123 974 1005 996 890 724 639 620 616 616 619 592 528 380 415 402 371 335 300 210 58 68 35 12 0 0 0 0 0 0 0 0 0 0 0 0 0 0 0 0 0 0 0 0 0 0 0 0 0 0 0 0 0
0 0 0 0 3 9 6 28 49 43 91 516 531 456 533 520 647 723 660 635 576 633 699 603 440 380 390 371 281 212 5 18 36 13 0 0 1 2 1 1 1 0 0 0 0 0 0 0 0 0 0 0 0 0 0 0 0 0 0 0 0 0 0
0 0 0 0 0 0 1 8 36 86 70 67 180 404 533 533 518 509 511 449 465 542 653 609 486 406 390 348 276 198 179 52 32 20 9 3 4 5 6 3 2 2 4 2 0 0 0 0 0 0 0 0 0 0 0 0 0 0 0 0 0 0 0
0 0 0 0 0 0 0 1 4 13 37 70 170 166 151 292 428 454 477 516 448 531 616 453 409 385 369 367 340 33 8 25 10 10 9 6 8 7 7 8 10 8 5 1 0 0 0 0 0 0 0 0 0 0 0 0 0 0 0 0 0 0 0
0 0 0 0 0 0 1 31 57 88 78 84 35 42 76 157 247 320 500 409 457 54 64 329 384 398 368 305 251 91 0 17 25 32 12 8 6 3 4 4 8 6 4 0 0 0 0 0 0 0 0 0 0 0 0 0 0 0 0 0 0 0 0
0 0 0 0 0 0 0 0 13 6 8 69 90 80 68 76 142 210 178 334 14 0 0 0 243 278 322 329 290 57 0 16 35 19 10 6 6 6 5 8 9 7 2 0 0 0 0 0 0 0 0 0 0 0 0 0 0 0 0 0 0 0 0
0 0 0 0 0 8 35 23 22 48 23 37 74 92 156 84 94 97 68 22 0 0 0 0 0 38 243 296 74 0 0 16 11 8 10 7 1 5 8 5 2 0 0 0 0 0 0 0 0 0 0 0 0 0 0 0 0 0 0 0 0 0 0
0 0 0 5 21 25 20 26 17 37 46 43 65 81 31 33 4 0 0 0 0 0 0 0 0 0 106 231 0 0 0 5 14 14 4 6 3 0 0 0 0 0 0 0 0 0 0 0 0 0 0 0 0 0 0 0 0 0 0 0 0 0 0
4 3 4 13 42 65 68 49 88 55 68 38 30 61 87 0 0 0 0 0 0 0 0 0 0 0 125 168 94 12 22 9 12 14 13 12 10 2 4 2 1 0 6 7 1 0 0 0 0 0 0 0 0 0 0 0 0 0 0 0 0 0 0
10 25 21 32 49 42 37 50 96 116 102 80 67 69 0 0 0 0 0 0 0 0 0 0 0 0 0 35 9 1 5 10 10 11 8 5 7 4 8 9 8 13 12 4 0 0 0 0 0 0 0 0 0 0 0 0 0 0 0 0 0 0 0
10 58 64 77 83 91 83 42 16 29 13 19 88 233 0 0 0 0 0 0 0 0 0 8 36 2 0 0 0 4 10 11 5 3 3 4 7 10 17 22 13 10 2 1 0 0 0 0 0 0 0 0 0 0 0 0 0 0 0 0 0 0 0
18 28 32 44 78 72 38 8 3 7 23 49 129 112 0 0 0 0 0 0 0 0 9 4 2 0 0 3 2 8 8 8 1 0 3 11 18 24 29 28 18 5 1 0 0 0 0 0 0 0 0 0 0 0 0 0 0 0 0 0 0 0 0
15 36 52 69 52 44 5 1 3 7 10 46 91 76 0 0 0 6 0 0 0 0 0 0 0 0 0 3 1 4 3 3 9 6 8 15 22 21 19 10 1 1 3 3 0 0 0 0 0 0 0 0 0 0 0 0 0 0 0 2 3 3 2

ECMWFFLT1_con_mucape_033.txt.gz
CAPE
0 0 0 0 0 0 0 0 0 0 0 0 0 0 0 0 0 0 0 0 0 0 0 0 0 0 0 0 0 0 0 0 13 153 83 86 9 36 156 0 4 70 8 223 242 228 115 268 376 205 616 543 381 797 728 489 941 860 666 766 858 652 619
0 0 0 0 0 0 0 0 0 0 0 0 0 0 0 0 0 0 0 0 0 0 0 0 0 0 0 0 0 0 0 0 0 0 0 0 12 73 62 50 0 12 68 230 315 241 165 45 129 94 46 474 648 578 278 723 700 482 640 791 785 641 532
0 0 0 0 0 0 0 0 0 0 0 0 0 0 0 0 0 0 0 0 0 0 0 0 0 0 0 0 0 0 0 0 0 0 0 0 0 0 0 2 34 12 47 83 79 38 250 122 5 9 13 35 88 149 573 646 468 400 474 440 452 440 352
0 0 0 0 0 0 0 0 0 0 0 0 0 0 0 0 0 0 0 0 0 0 0 0 0 0 0 0 0 0 0 0 0 0 0 0 0 0 0 0 0 0 0 0 0 0 0 0 2 2 0 0 11 113 231 300 216 332 271 45 48 53 147
0 0 0 0 0 0 0 0 0 0 0 0 0 0 0 0 0 0 0 0 0 0 0 0 0 0 0 0 0 0 0 0 0 0 0 0 0 0 0 0 0 0 0 0 0 0 0 0 0 0 0 0 0 0 335 563 242 120 30 29 49 67 108
0 0 0 0 0 0 0 0 0 0 0 0 0 0 0 0 0 0 0 0 0 0 0 0 0 0 0 0 0 0 0 0 0 0 0 0 0 0 0 0 0 0 0 0 0 0 0 0 0 0 0 0 0 0 0 164 2 23 6 0 1 37 107
1 0 0 0 0 0 0 0 0 0 0 0 0 0 0 0 0 0 0 0 0 0 0 0 0 0 0 0 0 0 0 0 0 0 0 0 0 0 0 0 0 0 0 0 0 0 0 0 0 0 0 0 0 0 0 0 0 0 0 2 6 0 0
11 0 4 0 1 0 0 0 0 0 0 0 0 0 0 0 0 0 0 0 0 0 0 0 0 0 0 0 0 0 0 0 0 0 0 0 0 0 0 0 0 0 0 0 0 0 0 0 0 0 0 0 0 0 0 0 0 0 0 0 0 0 0
55 6 17 22 15 7 0 9 2 0 0 0 0 0 0 0 0 0 0 0 0 0 0 0 0 0 0 0 0 0 0 0 0 0 0 0 0 0 0 0 0 0 0 0 0 0 0 0 0 0 0 0 0 0 0 0 0 0 0 0 0 0 0
23 28 47 110 71 201 60 5 58 9 0 0 0 0 0 0 0 0 0 0 0 0 0 0 0 0 0 0 0 0 0 0 0 0 0 0 0 0 0 0 0 0 0 0 0 0 0 0 0 0 0 0 0 0 0 0 0 0 0 0 0 0 0
12 0 209 235 76 343 180 96 38 142 17 2 3 0 0 0 0 105 0 0 0 0 0 0 0 0 0 0 0 0 0 0 0 0 0 0 0 0 0 0 0 0 0 0 0 0 0 0 0 0 0 0 0 0 0 0 0 0 0 0 0 0 0
126 16 140 347 205 73 368 181 111 2 195 55 40 0 0 0 0 1 0 0 0 0 0 0 0 0 0 0 0 0 0 0 0 0 0 0 0 0 0 0 0 0 0 0 0 0 0 0 0 0 0 0 0 0 0 0 0 0 0 0 0 0 0
420 218 163 530 96 92 315 323 220 4 34 42 40 8 0 0 7 2 2 0 0 0 0 0 0 0 0 0 0 0 0 0 0 0 0 0 0 0 0 0 0 0 0 0 0 0 0 0 0 0 0 0 0 0 0 0 0 0 0 0 0 0 0
736 632 475 498 262 251 308 365 374 308 174 13 56 36 1 2 6 11 8 10 2 0 0 0 0 0 0 0 0 0 0 0 0 0 0 0 0 0 0 0 0 0 0 0 0 0 0 0 0 0 0 0 0 0 0 0 0 0 0 0 0 0 0
711 572 490 430 441 285 288 271 221 124 326 449 302 162 78 158 145 109 101 6 6 2 0 0 0 0 0 0 0 0 0 0 0 0 0 0 0 0 0 0 0 0 0 0 0 0 0 0 0 0 0 0 0 0 0 0 0 0 0 0 0 0 0
741 682 578 484 391 300 374 258 258 132 224 472 508 437 271 247 195 206 275 269 189 16 54 51 110 60 38 0 0 0 0 0 0 0 0 0 0 0 0 0 0 0 0 0 0 0 0 0 0 0 0 0 0 0 0 0 0 0 0 0 0 0 0
630 749 513 593 797 701 573 534 447 327 444 511 472 456 415 418 333 283 247 16 24 188 210 209 203 197 150 168 119 20 0 0 0 0 0 0 0 0 0 0 0 0 0 0 0 0 0 0 0 0 0 0 0 0 0 0 0 0 0 0 0 0 0
697 770 667 647 654 637 619 564 572 494 427 496 440 399 407 322 370 385 259 35 10 24 104 102 121 175 245 239 223 172 105 11 8 2 8 17 6 0 0 0 0 0 0 0 0 0 0 0 0 0 0 0 0 0 0 0 0 0 0 0 0 0 0
714 756 741 650 583 489 443 551 542 767 780 376 362 502 437 338 327 348 96 88 64 70 25 26 55 40 26 162 216 225 209 166 165 128 27 46 0 0 0 0 0 0 0 0 0 0 0 0 0 0 0 0 0 0 0 0 0 0 0 0 0 0 0
991 955 827 758 653 451 466 539 570 663 796 656 631 651 512 457 428 417 417 300 122 112 94 32 7 34 19 20 2 15 55 197 184 190 195 5 0 0 0 0 0 0 0 0 0 0 0 0 0 0 0 0 0 0 0 0 0 0 0 0 0 0 0
733 758 671 776 748 643 506 515 592 590 608 681 627 643 612 553 539 494 484 442 334 84 46 17 21 33 41 100 29 26 2 183 175 169 187 55 46 0 0 0 0 0 0 0 0 0 0 0 0 0 0 0 0 0 0 0 0 0 0 0 0 0 0
768 603 510 480 518 506 496 485 530 571 565 574 578 554 482 451 463 476 451 422 369 256 317 264 79 244 254 110 57 170 186 200 200 198 181 188 168 96 0 0 0 0 0 1 0 0 0 0 0 0 0 0 0 0 0 0 0 0 0 0 0 0 0
388 584 525 568 554 480 421 407 406 449 459 476 534 561 549 517 486 504 526 516 464 375 240 47 318 331 329 257 29 50 175 231 231 182 142 127 128 86 23 1 0 2 2 1 2 4 4 3 2 0 0 0 0 0 0 0 0 0 0 0 0 0 0
0 0 7 16 294 350 489 559 514 425 416 488 531 507 467 492 512 502 482 475 498 511 488 487 480 466 450 361 244 277 319 280 248 190 5 110 138 145 84 8 2 3 6 6 6 8 6 4 3 0 0 0 0 0 0 0 0 0 0 0 0 0 0
0 0 0 0 0 0 30 295 431 498 597 655 607 510 483 487 460 428 405 433 466 504 575 605 590 512 482 444 364 306 323 274 164 59 0 136 138 129 114 52 10 6 8 9 11 12 10 5 2 1 0 0 0 0 0 0 0 0 0 0 0 0 0
0 0 0 0 0 0 0 0 0 0 66 239 430 610 660 644 572 560 552 517 483 504 520 594 654 690 700 680 578 496 416 323 197 181 27 6 59 100 6 90 46 21 10 12 15 15 13 7 5 4 0 0 0 0 0 0 0 0 0 0 0 0 0
0 0 0 0 0 0 0 0 0 0 0 0 0 38 220 520 685 717 664 613 634 649 691 706 720 720 732 698 611 528 279 251 73 69 46 0 0 27 20 24 23 20 21 13 16 20 13 9 7 3 0 0 0 0 0 0 0 0 0 0 0 0 0
0 0 0 0 0 0 0 0 0 0 0 0 0 0 0 0 0 7 151 361 495 505 413 573 667 738 785 702 580 490 492 388 224 70 49 0 0 0 0 26 26 30 23 10 12 14 10 4 4 2 0 0 0 0 0 0 0 0 0 0 0 0 0
0 0 0 0 0 0 0 0 0 0 0 0 0 0 0 0 0 0 0 56 269 390 414 590 706 747 718 651 524 443 392 344 290 170 0 0 0 0 0 0 14 20 17 21 9 3 3 8 8 4 0 0 0 0 0 0 0 0 0 0 0 0 0
0 0 0 0 0 0 0 0 0 0 0 0 0 0 0 0 0 0 0 0 20 258 381 392 382 503 551 516 466 425 384 308 212 195 166 92 49 15 0 5 6 13 16 16 15 8 10 7 7 0 0 0 0 0 0 0 0 0 0 0 0 0 0
0 0 0 0 0 0 0 0 0 0 0 0 0 0 0 0 0 0 0 0 0 142 213 240 279 385 414 387 396 382 255 254 173 27 0 9 0 0 0 6 8 11 16 18 10 10 12 8 0 0 0 0 0 0 0 0 0 0 0 0 0 0 0
0 0 0 0 0 0 0 0 0 0 0 0 0 0 0 0 0 0 0 0 0 71 145 179 216 257 274 294 296 298 293 263 196 0 0 0 0 0 0 0 0 0 0 0 5 5 2 3 2 1 0 0 0 0 0 0 0 0 0 0 0 0 0
0 0 0 0 0 0 0 0 0 0 0 0 0 0 0 0 0 0 0 0 0 0 0 53 162 175 178 188 219 245 212 142 135 118 72 52 4 2 0 0 0 0 5 10 2 0 0 2 2 2 2 0 0 0 0 0 0 0 0 0 0 0 0
0 0 0 0 0 0 0 0 0 0 2 0 0 0 0 0 0 0 0 0 0 0 0 0 0 103 134 139 171 205 173 87 95 99 53 2 2 2 0 3 0 2 0 0 5 6 6 5 3 5 2 0 0 0 0 0 0 0 0 0 0 0 0
0 0 0 0 0 0 0 0 0 0 0 0 0 0 0 0 0 0 0 0 0 0 0 0 0 78 113 137 134 0 0 0 28 8 4 2 2 2 2 7 1 0 1 2 6 9 9 6 5 0 0 0 0 0 0 0 0 0 0 0 0 0 0
0 0 0 0 0 0 0 0 0 0 0 0 0 0 0 0 0 0 0 0 0 0 0 0 38 46 39 38 41 28 17 9 7 9 10 10 8 3 0 2 2 7 10 11 11 8 3 1 3 0 0 0 0 0 0 0 0 0 0 0 0 0 0
0 0 0 0 0 0 0 0 0 0 0 4 5 0 0 0 0 0 0 0 0 0 20 36 30 10 7 4 8 8 6 3 4 6 4 3 11 5 10 16 17 11 6 4 3 0 0 1 0 0 0 0 0 0 0 0 0 0 0 0 1 3 6

ECMWFFLT1_con_mucape_036.txt.gz
CAPE
0 0 0 0 0 0 0 0 0 0 0 0 0 0 0 0 0 0 0 0 0 0 0 0 0 0 0 0 0 0 0 0 1 1 0 0 0 414 520 480 389 342 351 376 358 60 35 226 294 64 341 586 609 420 789 754 730 513 572 730 584 577 643
0 0 0 0 0 0 0 0 0 0 0 0 0 0 0 0 0 0 0 0 0 0 0 0 0 0 0 0 0 0 0 0 114 0 0 0 0 7 225 272 210 199 212 300 363 261 209 226 195 2 12 51 228 388 488 399 753 804 585 432 648 558 436
0 0 0 0 0 0 0 0 0 0 0 0 0 0 0 0 0 0 0 0 0 0 0 0 0 0 0 0 0 0 0 0 0 0 0 0 0 0 0 0 0 16 44 211 299 368 336 35 4 2 4 1 0 0 306 386 369 505 472 649 743 482 317
0 0 0 0 0 0 0 0 0 0 0 0 0 0 0 0 0 0 0 0 0 0 0 0 0 0 0 0 0 0 0 0 0 0 0 0 0 0 0 42 0 0 0 0 0 171 202 140 0 2 5 0 0 0 0 58 328 272 249 202 41 30 11
0 0 0 0 0 0 0 0 0 0 0 0 0 0 0 0 0 0 0 0 0 0 0 0 0 0 0 0 0 0 0 0 0 0 0 0 0 0 0 0 0 0 0 0 0 0 0 0 0 0 0 0 0 0 0 0 0 14 0 1 0 1 0
0 0 0 0 0 0 0 0 0 0 0 0 0 0 0 0 0 0 0 0 0 0 0 0 0 0 0 0 0 0 0 0 0 0 0 0 0 0 0 0 0 0 0 0 0 0 0 0 0 0 0 0 0 0 0 0 0 0 0 0 0 0 0
0 0 0 0 0 0 0 0 0 0 0 0 0 0 0 0 0 0 0 0 0 0 0 0 0 0 0 0 0 0 0 0 0 0 0 0 0 0 0 0 0 0 0 0 0 0 0 0 0 0 0 0 0 0 0 0 0 0 0 0 0 0 0
0 0 0 0 0 0 0 0 0 0 0 0 0 0 0 0 0 0 0 0 0 0 0 0 0 0 0 0 0 0 0 0 0 0 0 0 0 0 0 0 0 0 0 0 0 0 0 0 0 0 0 0 0 0 0 0 0 0 0 0 0 0 0
0 0 0 0 0 0 0 0 0 0 0 0 0 0 0 0 0 0 0 0 0 0 0 0 0 0 0 0 0 0 0 0 0 0 0 0 0 0 0 0 0 0 0 0 0 0 0 0 0 0 0 0 0 0 0 0 0 0 0 0 0 0 0
0 0 0 0 0 0 0 0 0 0 0 0 0 0 0 0 0 0 0 0 0 0 0 0 0 0 0 0 0 0 0 0 0 0 0 0 0 0 0 0 0 0 0 0 0 0 0 0 0 0 0 0 0 0 0 0 0 0 0 0 0 0 0
0 0 0 0 0 0 0 0 0 0 0 0 0 0 0 0 0 0 0 0 0 0 0 0 0 0 0 0 0 0 0 0 0 0 0 0 0 0 0 0 0 0 0 0 0 0 0 0 0 0 0 0 0 0 0 0 0 0 0 0 0 0 0
0 0 0 1 3 47 189 43 134 140 116 97 21 0 0 0 0 0 0 0 0 0 0 0 0 0 0 0 0 0 0 0 0 0 0 0 0 0 0 0 0 0 0 0 0 0 0 0 0 0 0 0 0 0 0 0 0 0 0 0 0 0 0
0 0 5 1 9 16 264 244 212 182 163 138 122 71 0 0 0 0 0 0 0 0 0 0 0 0 0 0 0 0 0 0 0 0 0 0 0 0 0 0 0 0 0 0 0 0 0 0 0 0 0 0 0 0 0 0 0 0 0 0 0 0 0
35 1 2 149 113 14 39 30 44 145 115 18 27 28 14 7 4 112 46 94 80 0 0 0 0 0 0 0 0 0 0 0 0 0 0 0 0 0 0 0 0 0 0 0 0 0 0 0 0 0 0 0 0 0 0 0 0 0 0 0 0 0 0
134 79 1 54 1 8 24 42 59 92 37 209 182 12 19 23 161 147 20 6 12 147 3 0 0 0 0 0 0 0 0 0 0 0 0 0 0 0 0 0 0 0 0 0 0 0 0 0 0 0 0 0 0 0 0 0 0 0 0 0 0 0 0
22 6 16 10 418 172 51 150 53 70 32 247 105 1 178 171 216 227 194 161 190 191 140 133 82 0 0 0 0 0 0 0 0 0 0 0 0 0 0 0 0 0 0 0 0 0 0 0 0 0 0 0 0 0 0 0 0 0 0 0 0 0 0
581 486 444 398 91 372 144 382 62 336 310 241 259 0 13 234 259 255 210 194 220 201 20 0 170 170 180 186 0 0 0 0 0 0 0 0 0 0 0 0 0 0 0 0 0 0 0 0 0 0 0 0 0 0 0 0 0 0 0 0 0 0 0
568 517 591 468 408 394 251 209 440 234 176 199 381 250 373 361 368 350 305 278 269 238 0 0 2 197 201 86 0 102 0 0 0 0 0 0 0 0 0 0 0 0 0 0 0 0 0 0 0 0 0 0 0 0 0 0 0 0 0 0 0 0 0
510 435 393 400 381 496 575 454 5 20 4 0 413 416 456 459 445 458 437 419 381 334 92 0 0 110 185 221 33 71 162 0 0 0 0 0 0 118 7 6 0 0 0 0 0 0 0 0 0 0 0 0 0 0 0 0 0 0 0 0 0 0 0
481 524 515 636 656 621 577 460 372 302 0 57 111 3 4 386 420 421 426 396 357 340 119 0 48 236 236 152 0 1 0 0 0 0 0 0 85 160 35 0 0 0 0 0 0 0 0 0 0 1 2 0 0 0 0 0 0 0 0 0 0 0 0
784 706 618 599 747 795 664 563 443 284 450 384 295 338 347 136 373 399 403 385 386 373 366 381 362 182 0 0 1 20 1 0 0 0 1 0 90 161 144 131 128 36 0 0 0 0 0 0 4 5 5 2 2 0 0 0 0 0 0 0 0 0 0
409 404 516 627 654 635 688 561 453 418 454 520 681 677 658 641 612 579 546 518 494 477 487 498 478 384 198 0 0 16 0 0 0 176 72 0 0 57 166 151 140 132 1 17 0 0 0 1 5 4 5 3 3 1 0 0 0 0 0 0 0 0 0
308 443 520 550 446 444 462 436 419 403 470 551 601 634 639 660 659 633 595 550 503 497 514 512 512 471 416 358 43 268 299 318 330 314 233 0 106 200 216 180 149 110 67 44 15 3 1 0 0 5 9 9 6 3 0 0 0 0 0 0 0 0 0
539 428 434 421 369 348 392 412 410 385 381 385 372 430 499 514 554 572 550 550 543 553 574 597 593 574 545 488 448 417 403 422 415 354 279 219 238 226 232 192 147 111 89 65 28 4 1 2 6 6 7 11 10 2 0 0 0 0 0 0 0 0 0
0 0 0 0 0 47 54 180 268 279 308 348 386 442 510 538 526 522 499 474 464 460 483 496 514 546 604 623 609 575 525 471 431 382 320 302 286 242 234 200 134 80 28 106 25 6 5 7 8 9 10 6 6 3 0 0 0 0 0 0 0 0 0
0 0 0 0 0 0 0 0 0 0 0 2 119 273 307 374 407 457 514 527 527 522 485 481 475 492 541 590 609 612 608 607 578 449 374 368 298 179 140 153 113 16 103 90 42 13 8 7 0 9 10 6 8 5 0 0 0 0 0 0 0 0 0
0 0 0 0 0 0 0 0 0 0 0 0 2 36 47 77 162 213 272 316 376 479 573 583 557 586 622 592 578 602 626 590 524 432 339 242 130 24 34 0 74 67 80 75 39 15 8 5 5 10 6 8 4 4 0 0 0 1 0 0 0 0 0
0 0 0 0 0 0 0 0 0 0 0 0 0 0 0 0 0 0 0 0 100 189 288 447 666 752 701 610 566 625 627 560 423 303 264 246 166 0 0 0 53 77 13 2 11 1 4 4 3 0 0 8 7 0 0 0 0 0 0 0 0 0 0
0 0 0 0 0 0 0 0 0 0 0 0 0 0 0 0 0 0 0 0 0 0 131 245 454 587 613 611 629 578 522 424 320 245 170 0 0 0 0 0 0 0 0 4 3 7 3 1 2 0 0 0 0 0 0 0 0 0 0 0 0 0 0
0 0 0 0 0 0 0 0 0 0 0 0 0 0 0 0 0 0 0 0 0 0 0 0 197 400 556 618 547 470 386 313 270 225 191 28 0 0 21 42 14 29 11 14 9 9 1 1 2 0 1 0 0 0 0 0 0 0 0 0 0 0 0
0 0 0 0 0 0 0 0 0 0 0 0 0 0 0 0 0 0 0 0 0 0 0 0 0 242 384 516 544 496 392 334 273 205 173 132 113 0 0 0 0 0 0 2 2 4 2 0 1 0 0 0 0 0 0 0 0 0 0 0 0 0 0
0 0 0 0 0 0 0 0 0 0 0 0 0 0 0 0 0 0 0 0 0 0 0 0 0 193 277 326 342 321 306 280 243 177 0 0 0 39 28 16 3 4 4 8 6 1 1 0 0 0 0 1 1 1 2 0 0 0 0 0 0 0 0
0 0 0 0 0 0 0 0 0 0 0 0 0 0 0 0 0 0 0 0 0 0 0 0 0 132 196 242 266 258 243 217 205 165 106 7 24 0 0 8 10 0 5 6 2 0 0 0 0 0 0 0 0 2 0 0 0 0 0 0 0 0 0
0 0 0 0 0 0 0 0 0 0 0 0 0 0 0 0 0 0 0 0 0 0 0 0 0 0 58 83 165 182 183 167 140 114 91 61 40 12 8 11 9 3 2 3 0 0 0 0 0 0 1 6 8 5 4 0 0 0 0 0 0 0 0
0 0 0 0 0 0 0 0 0 0 0 0 0 0 0 0 0 0 0 0 0 0 0 0 0 0 0 38 112 127 142 134 85 63 50 33 22 18 8 7 4 2 0 0 0 0 0 0 3 7 11 11 8 4 0 0 0 0 0 0 0 0 0
0 0 0 0 0 0 0 0 0 0 0 0 0 0 0 0 0 0 0 0 0 0 0 0 0 0 36 61 85 86 82 44 14 7 10 8 8 9 4 1 1 2 2 0 0 5 9 10 11 8 6 2 1 0 0 0 0 0 0 0 0 0 0
0 0 0 0 0 0 0 0 0 0 0 0 0 0 0 0 0 0 0 0 0 0 0 0 0 0 28 56 54 43 31 23 16 15 14 8 5 1 3 3 4 5 0 0 0 0 0 0 0 0 0 0 0 0 0 0 0 0 0 0 0 0 0